Location: Mapua
(41.2500°S, 173.1000°E)
Time: 17:03:43
(UTC+13:00)

Tiangong 2 - Visible Passes

Search period start: 25 February 2018 00:00
Search period end: 07 March 2018 00:00
Orbit: 384 x 389 km, 42.8° (Epoch: 24 February)

Date Brightness Start Highest point End Pass type
(mag) Time Alt. Az. Time Alt. Az. Time Alt. Az.
25 Feb 2.9 04:43:23 31° ESE 04:43:23 31° ESE 04:45:16 10° E visible
25 Feb 1.1 06:15:41 10° WSW 06:18:55 76° NNW 06:22:09 10° ENE visible
26 Feb 1.1 05:19:39 71° SW 05:19:56 81° S 05:23:10 10° E visible
27 Feb 4.3 04:23:47 12° E 04:23:47 12° E 04:24:07 10° E visible
27 Feb 1.4 05:56:04 24° W 05:57:40 48° NNW 06:00:48 10° NE visible
28 Feb 3.0 05:00:23 26° ENE 05:00:23 26° ENE 05:01:55 10° ENE visible
28 Feb 2.8 06:32:52 10° WNW 06:35:09 18° NNW 06:37:25 10° NNE visible
01 Mar 2.5 05:37:12 25° N 05:37:12 25° N 05:39:09 10° NE visible
05 Mar 3.3 21:25:35 10° NNW 21:26:33 15° N 21:26:33 15° N visible
06 Mar 3.4 22:02:13 10° NW 22:03:15 19° NW 22:03:15 19° NW visible
